Flag for France Weather past 2 weeks in Besançon, France

Now
64 °F

Rain. More clouds than sun.


Feels Like: 64 °F
Forecast: 60 / 77 °F
Wind: 7 mph from Southwest

Location: Dole Tavaux

Current Time: Sep 19, 2014 at 2:54:22 PM

Latest Report: Sep 19, 2014 at 2:30 PM


Visibility: N/A

Pressure: 29.98 "Hg

Humidity: 94%

Dew point: 63 °F

Location of BesançonLocation

Historic Weather in Besançon — Graph

°F

Besançon temperature yesterday

Maximum temperature yesterday: 81 °F (at 3:30 PM)
Minimum temperature yesterday: 59 °F (at 4:30 AM)
Average temperature yesterday: 69 °F

Past Weeks' High & Low Weather Summary

 TemperatureHumidityPressure
High82 °F (Sep 8, 4:00 PM)100% (Sep 6, 6:30 AM)30.12 "Hg (Sep 6, 6:30 AM)
Low50 °F (Sep 12, 6:00 AM)42% (Sep 16, 5:30 PM)29.80 "Hg (Sep 17, 3:30 PM)
Average66 °F75%29.96 "Hg
* Reported Sep 4 2:00 PM — Sep 19 2:00 PM, Besançon, Weather by CustomWeather, © 2014

Note: Actual official high and low records may vary slightly from our data, if they occured in-between our weather recording intervals... More about our weather records

Advertising

Besançon weather history for previous 24 hours

 ConditionsComfort  
Time TempWeatherWind HumidityBarometerVisibility
2:00 PM
Sep 19
64 °FRain. Cloudy.6 mph88%29.98 "Hg5 mi
1:30 PM64 °FLight rain. More clouds than sun.7 mph94%29.98 "HgN/A
1:00 PM64 °FHeavy rain. Partly sunny.12 mph88%29.98 "Hg5 mi
12:30 PM68 °FPartly sunny.9 mph83%29.98 "HgN/A
12:00 PM68 °FMild.8 mph78%29.98 "HgN/A
11:30 AM66 °FClear.5 mph83%29.95 "HgN/A
11:00 AM66 °FClear.6 mph83%29.95 "HgN/A
10:30 AM66 °FClear.7 mph83%29.95 "HgN/A
10:00 AM63 °FClear.5 mph94%29.95 "HgN/A
9:30 AM63 °FClear.3 mph94%29.95 "HgN/A
9:00 AM61 °FClear.5 mph94%29.92 "HgN/A
8:30 AM61 °FClear.5 mph94%29.92 "HgN/A
8:00 AM59 °FClear.3 mph100%29.92 "HgN/A
7:30 AM59 °FClear.2 mph100%29.92 "HgN/A
7:00 AM59 °FClear.2 mph100%29.92 "HgN/A
6:30 AM59 °FClear.2 mph94%29.92 "HgN/A
6:00 AM59 °FClear.2 mph94%29.92 "HgN/A
5:30 AM57 °FClear.2 mph100%29.92 "HgN/A
5:00 AM59 °FClear.No wind94%29.89 "HgN/A
4:30 AM59 °FClear.3 mph94%29.89 "HgN/A
4:00 AM59 °FClear.2 mph100%29.89 "HgN/A
3:30 AM59 °FClear.3 mph100%29.89 "HgN/A
3:00 AM59 °FClear.3 mph100%29.89 "HgN/A
2:30 AM59 °FClear.3 mph100%29.89 "HgN/A
2:00 AM59 °FClear.3 mph100%29.89 "HgN/A
1:30 AM61 °FClear.3 mph94%29.89 "HgN/A
1:00 AM61 °FClear.8 mph94%29.92 "HgN/A
12:30 AM63 °FPassing clouds.7 mph88%29.92 "HgN/A
12:00 AM63 °FMild.2 mph88%29.89 "HgN/A
11:30 PM
Sep 18
63 °FThundershowers. Overcast.13 mph94%29.92 "Hg5 mi
11:00 PM63 °FThunderstorms. Passing clouds.15 mph94%29.92 "Hg4 mi
10:30 PM68 °FPassing clouds.3 mph83%29.89 "HgN/A
10:00 PM68 °FMild.5 mph83%29.86 "HgN/A
9:30 PM68 °FMild.6 mph78%29.86 "HgN/A
9:00 PM68 °FClear.5 mph73%29.86 "HgN/A
8:30 PM70 °FClear.5 mph73%29.86 "HgN/A
8:00 PM70 °FClear.3 mph73%29.86 "HgN/A
7:30 PM72 °FClear.5 mph69%29.83 "HgN/A
7:00 PM75 °FClear.N/A61%29.83 "HgN/A
6:30 PM77 °FClear.7 mph57%29.83 "HgN/A
6:00 PM79 °FPassing clouds.9 mph54%29.83 "HgN/A
5:30 PM77 °FClear.7 mph54%29.83 "HgN/A
5:00 PM79 °FClear.13 mph51%29.83 "HgN/A
4:30 PM81 °FClear.12 mph48%29.83 "HgN/A
4:00 PM81 °FClear.12 mph48%29.83 "HgN/A
3:30 PM81 °FClear.13 mph48%29.83 "HgN/A
3:00 PM79 °FPartly sunny.12 mph51%29.86 "HgN/A
2:30 PM77 °FPartly sunny.14 mph54%29.86 "HgN/A
2:00 PM77 °FWarm.13 mph54%29.86 "HgN/A
Weather by CustomWeather, © 2014

See weather overviewHow to use our weather pages